Flag for Argentina Weather past 2 weeks in Comodoro Rivadavia, Chubut, Argentina

Now
59 °F

Scattered clouds.


Feels Like: 55 °F
Forecast: N/A
Wind: 26 mph from West

Location: Comodoro Rivadavia Aerodrome


UV Index: N/A

Visibility: N/A


Pressure: 29.62 "Hg

Humidity: 34%

Dew point: 30 °F

Location of Comodoro RivadaviaLocation

Historic Weather in Comodoro Rivadavia

°F

Comodoro Rivadavia temperature yesterday

Maximum temperature yesterday: 68 °F (at 2:00 PM)
Minimum temperature yesterday: 59 °F (at 8:00 PM)
Average temperature yesterday: 64 °F

Past Weeks' High & Low Weather Summary

 TemperatureHumidityPressure
High68 °F (Apr 10, 4:00 PM)100% (Apr 4, 7:00 AM)30.42 "Hg (Apr 4, 7:00 AM)
Low37 °F (Apr 13, 12:00 AM)28% (Apr 2, 8:00 AM)29.36 "Hg (Apr 16, 1:00 AM)
Average55 °F72%29.95 "Hg
* Reported Apr 1 3:00 PM — Apr 16 3:00 PM, Comodoro Rivadavia, Weather by CustomWeather, © 2014

Note: Actual official high and low records may vary slightly from our data, if they occured in-between our weather recording intervals... More about our weather records

Advertising

Historic Weather Conditions — Data for Previous 24 hours

 ConditionsComfort  
Time TempWeatherWind HumidityBarometerVisibility
3:00 PM
Apr 16
59 °FPassing clouds.24 mph36%29.62 "HgN/A
2:00 PM57 °FPassing clouds.30 mph36%29.65 "HgN/A
1:00 PM57 °FPassing clouds.28 mph36%29.65 "HgN/A
12:00 PM54 °FSunny.26 mph33%29.65 "Hg10 mi
11:02 AM52 °FSunny.29 mph41%29.62 "Hg10 mi
10:00 AM48 °FPassing clouds.29 mph46%29.62 "HgN/A
9:00 AM46 °FPassing clouds.24 mph50%29.59 "HgN/A
8:00 AM46 °FSunny.24 mph50%29.56 "Hg10 mi
7:00 AM46 °FClear.26 mph53%29.53 "Hg10 mi
6:00 AM46 °FClear.18 mph62%29.50 "Hg10 mi
5:00 AM50 °FClear.18 mph54%29.50 "Hg10 mi
4:00 AM52 °FClear.15 mph67%29.47 "Hg10 mi
3:00 AM52 °FClear.17 mph67%29.47 "Hg10 mi
2:00 AM59 °FClear.23 mph39%29.42 "Hg10 mi
1:00 AM59 °FClear.26 mph39%29.36 "Hg10 mi
12:00 AM61 °FClear.25 mph36%29.39 "Hg10 mi
11:00 PM
Apr 15
59 °FClear.10 mph51%29.42 "Hg10 mi
10:00 PM61 °FClear.12 mph42%29.45 "Hg10 mi
8:00 PM59 °FClear.8 mph51%29.47 "Hg10 mi
7:00 PM64 °FPassing clouds.10 mph43%29.47 "HgN/A
6:00 PM66 °FPassing clouds.13 mph37%29.50 "HgN/A
5:00 PM68 °FSunny.24 mph30%29.47 "Hg10 mi
4:00 PM68 °FPassing clouds.17 mph35%29.50 "HgN/A
Weather by CustomWeather, © 2014

See weather overview